This is the latest recevied weather packets stored in our database for station/object 9W3FAB-1. If no packets are shown the sender has not sent any weather packets the latest 1 day(s).
| Time | Temp. | Humidity | Pressure | Rain* | Wind** | Luminosity | Snow |
|---|---|---|---|---|---|---|---|
| 1778103165 | 27.78° C | 100% | 1006.9 hPa | - | - | - | - |
| 1778102264 | 26.11° C | 100% | 1006.9 hPa | - | - | - | - |
| 1778097760 | 26.67° C | 100% | 1007 hPa | - | - | - | - |
| 1778092355 | 26.67° C | 100% | 1007.5 hPa | - | - | - | - |
| 1778091454 | 27.22° C | 100% | 1007.5 hPa | - | - | - | - |
| 1778090553 | 27.22° C | 100% | 1007.5 hPa | - | - | - | - |
| 1778089652 | 27.22° C | 100% | 1007.5 hPa | - | - | - | - |
| 1778087850 | 27.22° C | 100% | 1008.2 hPa | - | - | - | - |
| 1778086949 | 26.67° C | 100% | 1008.4 hPa | - | - | - | - |
| 1778081544 | 28.33° C | 100% | 1008.5 hPa | - | - | - | - |
| 1778076139 | 28.89° C | 100% | 1007.6 hPa | - | - | - | - |
| 1778075238 | 28.89° C | 100% | 1007.6 hPa | - | - | - | - |
| 1778070734 | 29.44° C | 100% | 1006.8 hPa | - | - | - | - |
| 1778069833 | 30° C | 100% | 1006.7 hPa | - | - | - | - |
| 1778068932 | 30° C | 100% | 1006.3 hPa | - | - | - | - |
| 1778068031 | 30° C | 100% | 1006.1 hPa | - | - | - | - |
| 1778067130 | 30° C | 100% | 1005.6 hPa | - | - | - | - |
| 1778066229 | 30° C | 100% | 1005.4 hPa | - | - | - | - |
| 1778061725 | 30° C | 100% | 1004.4 hPa | - | - | - | - |
| 1778060824 | 30° C | 100% | 1004.2 hPa | - | - | - | - |
| 1778059923 | 30.56° C | 100% | 1003.8 hPa | - | - | - | - |
| 1778056320 | 30.56° C | 100% | 1003.8 hPa | - | - | - | - |
| 1778055419 | 31.11° C | 100% | 1003.7 hPa | - | - | - | - |
| 1778054518 | 31.11° C | 100% | 1003.7 hPa | - | - | - | - |
| 1778053617 | 31.67° C | 100% | 1003.9 hPa | - | - | - | - |
* Rain since midnight (hover to see other rain measurements)
** Current wind speed in m/s (hover to see current wind gust speed)